When you browse on this site, cookies collect data to enhance your experience and personalize the content and advertising you see.
Visit our Privacy Policy to learn more. By continuing to use the site, you agree to this use of cookies and data.

Meteo orario Banbridge

Oggi, 3 Luglio, Venerdi

Tempo Temperatura Precipitazioni Vento Pressione Umidità
00:00 +10°C° 0 mm 4 m/s 750 mm Hg 96%
01:00 +9°C° 0.5 mm 5 m/s 749 mm Hg 96%
02:00 +9°C° 0.5 mm 6 m/s 749 mm Hg 96%
03:00 +10°C° 0.5 mm 7 m/s 748 mm Hg 96%
04:00 +10°C° 0.3 mm 7 m/s 747 mm Hg 96%
05:00 +10°C° 0.3 mm 7 m/s 747 mm Hg 96%
06:00 +10°C° 0.3 mm 7 m/s 746 mm Hg 96%
07:00 +11°C° 0.5 mm 7 m/s 746 mm Hg 96%
08:00 +13°C° 0.5 mm 6 m/s 746 mm Hg 96%
09:00 +14°C° 0.5 mm 6 m/s 746 mm Hg 96%
10:00 +14°C° 0.1 mm 6 m/s 746 mm Hg 96%
11:00 +15°C° 0.1 mm 7 m/s 746 mm Hg 95%
12:00 +15°C° 0.1 mm 7 m/s 746 mm Hg 94%
13:00 +15°C° 0.8 mm 6 m/s 746 mm Hg 95%
14:00 +14°C° 0.8 mm 5 m/s 746 mm Hg 95%
15:00 +13°C° 0.8 mm 4 m/s 746 mm Hg 96%
16:00 +13°C° 0.1 mm 3 m/s 747 mm Hg 95%
17:00 +14°C° 0.1 mm 2 m/s 747 mm Hg 94%
18:00 +14°C° 0.1 mm 2 m/s 747 mm Hg 94%
19:00 +14°C° 0 mm 1 m/s 747 mm Hg 94%
20:00 +14°C° 0 mm 1 m/s 747 mm Hg 94%
21:00 +13°C° 0 mm 1 m/s 748 mm Hg 95%
22:00 +13°C° 0.1 mm 1 m/s 747 mm Hg 96%
23:00 +13°C° 0.1 mm 1 m/s 747 mm Hg 96%

Domani, 4 Luglio, Sabato

Tempo Temperatura Precipitazioni Vento Pressione Umidità
00:00 +13°C° 0.1 mm 1 m/s 747 mm Hg 97%
01:00 +13°C° 0.6 mm 1 m/s 747 mm Hg 97%
02:00 +14°C° 0.6 mm 1 m/s 746 mm Hg 98%
03:00 +14°C° 0.6 mm 2 m/s 746 mm Hg 99%
04:00 +14°C° 1.3 mm 2 m/s 745 mm Hg 99%
05:00 +15°C° 1.3 mm 2 m/s 745 mm Hg 98%
06:00 +15°C° 1.3 mm 2 m/s 745 mm Hg 98%
07:00 +14°C° 0 mm 3 m/s 745 mm Hg 98%
08:00 +14°C° 0 mm 4 m/s 745 mm Hg 97%
09:00 +15°C° 0 mm 4 m/s 745 mm Hg 97%
10:00 +15°C° 0.1 mm 4 m/s 745 mm Hg 96%
11:00 +15°C° 0.1 mm 5 m/s 745 mm Hg 95%
12:00 +15°C° 0.1 mm 5 m/s 745 mm Hg 95%
13:00 +15°C° 0.1 mm 5 m/s 745 mm Hg 94%
14:00 +17°C° 0.1 mm 4 m/s 745 mm Hg 93%
15:00 +17°C° 0.1 mm 4 m/s 745 mm Hg 92%
16:00 +17°C° 0.3 mm 4 m/s 745 mm Hg 92%
17:00 +18°C° 0.3 mm 4 m/s 745 mm Hg 92%
18:00 +17°C° 0.3 mm 5 m/s 745 mm Hg 92%
19:00 +16°C° 0.2 mm 5 m/s 744 mm Hg 93%
20:00 +15°C° 0.2 mm 6 m/s 743 mm Hg 93%
21:00 +14°C° 0.2 mm 6 m/s 743 mm Hg 93%
22:00 +14°C° 0.6 mm 7 m/s 742 mm Hg 94%
23:00 +15°C° 0.6 mm 7 m/s 741 mm Hg 95%

Dopodomani, 5 Luglio, Domenica

Tempo Temperatura Precipitazioni Vento Pressione Umidità
00:00 +15°C° 0.6 mm 8 m/s 740 mm Hg 96%
01:00 +13°C° 0.3 mm 8 m/s 741 mm Hg 95%
02:00 +12°C° 0.3 mm 8 m/s 741 mm Hg 93%
03:00 +11°C° 0.3 mm 8 m/s 742 mm Hg 92%
04:00 +10°C° 0 mm 8 m/s 743 mm Hg 91%
05:00 +9°C° 0 mm 7 m/s 744 mm Hg 90%
06:00 +9°C° 0 mm 6 m/s 745 mm Hg 90%
07:00 +9°C° 0.1 mm 7 m/s 745 mm Hg 86%
08:00 +10°C° 0.1 mm 7 m/s 745 mm Hg 82%
09:00 +11°C° 0.1 mm 7 m/s 745 mm Hg 78%
10:00 +12°C° 0.2 mm 8 m/s 745 mm Hg 78%
11:00 +12°C° 0.2 mm 8 m/s 745 mm Hg 78%
12:00 +12°C° 0.2 mm 8 m/s 745 mm Hg 78%
13:00 +12°C° 0.4 mm 8 m/s 745 mm Hg 79%
14:00 +13°C° 0.4 mm 8 m/s 745 mm Hg 79%
15:00 +13°C° 0.4 mm 8 m/s 745 mm Hg 79%
16:00 +12°C° 0.4 mm 8 m/s 745 mm Hg 82%
17:00 +11°C° 0.4 mm 8 m/s 744 mm Hg 85%
18:00 +11°C° 0.4 mm 7 m/s 744 mm Hg 87%
19:00 +10°C° 0.1 mm 7 m/s 745 mm Hg 88%
20:00 +10°C° 0.1 mm 7 m/s 746 mm Hg 88%
21:00 +9°C° 0.1 mm 7 m/s 747 mm Hg 89%
22:00 +9°C° 0 mm 7 m/s 748 mm Hg 89%
23:00 +9°C° 0 mm 7 m/s 749 mm Hg 89%

6 Luglio, Lunedi

Tempo Temperatura Precipitazioni Vento Pressione Umidità
00:00 +8°C° 0 mm 7 m/s 750 mm Hg 89%
01:00 +8°C° 0 mm 7 m/s 750 mm Hg 88%
02:00 +8°C° 0 mm 6 m/s 751 mm Hg 88%
03:00 +8°C° 0 mm 6 m/s 752 mm Hg 88%
04:00 +8°C° 0 mm 6 m/s 753 mm Hg 86%
05:00 +8°C° 0 mm 6 m/s 753 mm Hg 85%
06:00 +9°C° 0 mm 6 m/s 754 mm Hg 83%
07:00 +10°C° 0 mm 6 m/s 755 mm Hg 79%
08:00 +11°C° 0 mm 7 m/s 756 mm Hg 76%
09:00 +12°C° 0 mm 7 m/s 756 mm Hg 72%
10:00 +14°C° 0 mm 6 m/s 757 mm Hg 69%
11:00 +14°C° 0 mm 6 m/s 757 mm Hg 67%
12:00 +15°C° 0 mm 6 m/s 758 mm Hg 65%
13:00 +15°C° 0 mm 6 m/s 758 mm Hg 65%
14:00 +15°C° 0 mm 5 m/s 759 mm Hg 65%
15:00 +15°C° 0 mm 5 m/s 759 mm Hg 65%
16:00 +15°C° 0 mm 5 m/s 759 mm Hg 68%
17:00 +15°C° 0 mm 4 m/s 759 mm Hg 71%
18:00 +14°C° 0 mm 4 m/s 760 mm Hg 73%
19:00 +13°C° 0 mm 4 m/s 760 mm Hg 79%
20:00 +11°C° 0 mm 3 m/s 760 mm Hg 84%
21:00 +10°C° 0 mm 3 m/s 760 mm Hg 90%
22:00 +9°C° 0 mm 3 m/s 760 mm Hg 91%
23:00 +8°C° 0 mm 2 m/s 760 mm Hg 93%

7 Luglio, Martedi

Tempo Temperatura Precipitazioni Vento Pressione Umidità
00:00 +8°C° 0 mm 2 m/s 759 mm Hg 95%
01:00 +8°C° 0 mm 3 m/s 759 mm Hg 95%
02:00 +8°C° 0 mm 3 m/s 759 mm Hg 96%
03:00 +7°C° 0 mm 3 m/s 759 mm Hg 96%
04:00 +8°C° 0 mm 3 m/s 759 mm Hg 95%
05:00 +9°C° 0 mm 3 m/s 759 mm Hg 94%
06:00 +9°C° 0 mm 3 m/s 759 mm Hg 93%
07:00 +11°C° 0 mm 3 m/s 759 mm Hg 87%
08:00 +12°C° 0 mm 3 m/s 759 mm Hg 81%
09:00 +13°C° 0 mm 4 m/s 759 mm Hg 76%
10:00 +13°C° 0.1 mm 4 m/s 759 mm Hg 75%
11:00 +14°C° 0.1 mm 3 m/s 759 mm Hg 74%
12:00 +14°C° 0.1 mm 3 m/s 759 mm Hg 74%
13:00 +13°C° 0.1 mm 3 m/s 759 mm Hg 78%
14:00 +13°C° 0.1 mm 3 m/s 759 mm Hg 83%
15:00 +12°C° 0.1 mm 3 m/s 759 mm Hg 87%
16:00 +12°C° 0.6 mm 3 m/s 758 mm Hg 90%
17:00 +12°C° 0.6 mm 3 m/s 758 mm Hg 93%
18:00 +11°C° 0.6 mm 4 m/s 758 mm Hg 96%
19:00 +12°C° 0.7 mm 4 m/s 757 mm Hg 97%
20:00 +12°C° 0.7 mm 4 m/s 757 mm Hg 97%
21:00 +13°C° 0.7 mm 4 m/s 757 mm Hg 97%
22:00 +13°C° 0.2 mm 5 m/s 757 mm Hg 97%
23:00 +14°C° 0.2 mm 5 m/s 757 mm Hg 97%

8 Luglio, Mercoledi

Tempo Temperatura Precipitazioni Vento Pressione Umidità
00:00 +14°C° 0.2 mm 5 m/s 756 mm Hg 97%
01:00 +14°C° 0 mm 5 m/s 756 mm Hg 97%
02:00 +14°C° 0 mm 5 m/s 756 mm Hg 96%
03:00 +14°C° 0 mm 5 m/s 756 mm Hg 96%
04:00 +15°C° 0.2 mm 5 m/s 756 mm Hg 96%
05:00 +15°C° 0.2 mm 6 m/s 755 mm Hg 96%
06:00 +15°C° 0.2 mm 6 m/s 755 mm Hg 96%
07:00 +15°C° 0.3 mm 6 m/s 755 mm Hg 96%
08:00 +15°C° 0.3 mm 6 m/s 755 mm Hg 96%
09:00 +15°C° 0.3 mm 6 m/s 755 mm Hg 96%
10:00 +16°C° 0.1 mm 6 m/s 755 mm Hg 94%
11:00 +16°C° 0.1 mm 6 m/s 755 mm Hg 92%
12:00 +17°C° 0.1 mm 7 m/s 755 mm Hg 90%
13:00 +18°C° 0 mm 7 m/s 755 mm Hg 87%
14:00 +18°C° 0 mm 7 m/s 754 mm Hg 84%
15:00 +20°C° 0 mm 7 m/s 754 mm Hg 81%
16:00 +20°C° 0 mm 7 m/s 754 mm Hg 81%
17:00 +18°C° 0 mm 7 m/s 754 mm Hg 81%
18:00 +18°C° 0 mm 7 m/s 753 mm Hg 80%
19:00 +18°C° 0 mm 7 m/s 753 mm Hg 83%
20:00 +17°C° 0 mm 7 m/s 753 mm Hg 85%
21:00 +16°C° 0 mm 7 m/s 753 mm Hg 87%
22:00 +15°C° 0.1 mm 6 m/s 753 mm Hg 87%
23:00 +14°C° 0.1 mm 6 m/s 754 mm Hg 87%
Mostrare altro